This demonstration page uses our WeatherBlox Daily Observations layout. Learn more.

Left ArrowRight Arrow

Hourly Observations for March 10, 2022

Temp ( °F °C ) Dew Point ( °F °C ) Humidity (%) Winds ( mph kmh ) Pressure ( in mb ) Visibility ( mi km ) Precip ( " mm )
12:09 am 00:09 Cloudy with Light Snow 14 -10 10 -12 85 85 NE 9 15 30.40 1030 3 5 0.00 0.00
12:17 am 00:17 Cloudy with Light Snow 14 -10 10 -12 85 85 NNE 8 13 30.40 1030 4 6 0.00 0.00
12:56 am 00:56 Cloudy with Light Snow 14 -10 11 -11.7 88 88 NNE 10 17 30.32 1027 3 5 0.00 0.00
1:17 am 01:17 Cloudy with Light Snow 14 -10 10 -12 85 85 NNE 9 15 30.41 1030 3 4 0.00 0.00
1:47 am 01:47 Cloudy with Light Snow N/A N/A N/A NNE 9 15 N/A 3 5 0.00 0.00
1:56 am 01:56 Cloudy with Light Snow N/A N/A N/A NNE 10 17 N/A 4 6 0.00 0.00
2:56 am 02:56 Cloudy with Light Snow 14 -10 12 -11.1 92 92 N 8 13 30.32 1027 3 5 0.00 0.00
3:30 am 03:30 Cloudy with Light Snow 14 -10 12 -11 92 92 N 8 13 30.40 1030 4 6 0.00 0.00
3:54 am 03:54 Cloudy with Light Snow 14 -10 10 -12 85 85 N 8 13 30.39 1029 3 4 0.00 0.00
3:55 am 03:55 Cloudy with Light Snow 14 -10 11 -11.7 88 88 N 8 13 30.31 1027 3 4 0.00 0.00
4:28 am 04:28 Cloudy with Light Snow 14 -10 10 -12 85 85 NNE 9 15 30.39 1029 3 5 0.00 0.00
4:56 am 04:56 Cloudy with Light Snow 14 -10 11 -11.7 88 88 N 7 11 30.32 1027 4 6 0.00 0.00
5:56 am 05:56 Cloudy with Light Snow 14 -10 12 -11.1 92 92 N 5 7 30.34 1027 5 8 0.00 0.00
6:35 am 06:35 Cloudy with Light Snow 14 -10 10 -12 85 85 N 5 7 30.41 1030 3 5 0.00 0.00
6:56 am 06:56 Cloudy with Light Snow 14 -10 11 -11.7 88 88 N 5 7 30.34 1028 3 4 0.00 0.00
7:36 am 07:36 Cloudy with Light Snow 14 -10 10 -12 85 85 N 5 7 30.41 1030 3 5 0.00 0.00
7:56 am 07:56 Cloudy with Light Snow 14 -10 11 -11.7 88 88 N 5 7 30.35 1028 5 8 0.00 0.00
8:56 am 08:56 Cloudy with Light Snow 15 -9.4 11 -11.7 84 84 NW 5 7 30.36 1028 2 3 0.00 0.00
9:06 am 09:06 Cloudy with Light Snow 16 -9 10 -12 79 79 NNW 5 7 30.43 1031 2 3 0.00 0.00
9:43 am 09:43 Cloudy with Light Snow 16 -9 12 -11 86 86 NW 7 11 30.43 1031 2 3 0.00 0.00
9:56 am 09:56 Cloudy with Light Snow 16 -8.9 12 -11.1 84 84 NW 6 9 30.37 1028 3 4 0.00 0.00
10:06 am 10:06 Cloudy with Light Snow 16 -9 10 -12 79 79 NW 5 7 30.43 1031 4 6 0.00 0.00
10:47 am 10:47 Cloudy 18 -8 10 -12 73 73 Calm 30.42 1030 9 14 0.00 0.00
10:56 am 10:56 Cloudy 18 -7.8 12 -11.1 77 77 NW 3 6 30.36 1028 10 16 0.00 0.00
11:06 am 11:06 Mostly Cloudy 18 -8 10 -12 73 73 NW 3 6 30.41 1030 10 16 0.00 0.00
11:56 am 11:56 Mostly Cloudy with Light Snow 19 -7.2 10 -12.2 68 68 Calm 30.35 1028 9 14 0.00 0.00
12:56 pm 12:56 Mostly Cloudy 20 -6.7 10 -12.2 65 65 W 3 6 30.33 1027 10 16 0.00 0.00
1:41 pm 13:41 Mostly Sunny 21 -6 10 -12 63 63 WNW 6 9 30.36 1028 10 16 0.00 0.00
1:56 pm 13:56 Mostly Sunny 20 -6.7 10 -12.2 65 65 Calm 30.35 1028 10 16 0.00 0.00
2:56 pm 14:56 Sunny 21 -6.1 11 -11.7 65 65 NNW 7 11 30.27 1025 10 16 0.00 0.00
3:56 pm 15:56 Mostly Sunny 22 -5.6 12 -11.1 66 66 WNW 6 9 30.26 1025 10 16 0.00 0.00
4:36 pm 16:36 Mostly Cloudy 21 -6 12 -11 68 68 W 9 15 30.30 1026 10 16 0.00 0.00
4:43 pm 16:43 Partly Cloudy 21 -6 12 -11 68 68 W 8 13 30.30 1026 10 16 0.00 0.00
4:56 pm 16:56 Mostly Sunny 22 -5.6 12 -11.1 66 66 W 7 11 30.24 1024 10 16 0.00 0.00
5:56 pm 17:56 Mostly Sunny 21 -6.1 12 -11.1 68 68 WSW 9 15 30.26 1025 10 16 0.00 0.00
6:56 pm 18:56 Clear 21 -6.1 11 -11.7 65 65 WSW 9 15 30.26 1025 10 16 0.00 0.00
7:56 pm 19:56 Clear 20 -6.7 13 -10.6 74 74 WSW 9 15 30.26 1025 10 16 0.00 0.00
8:56 pm 20:56 Clear 19 -7.2 12 -11.1 74 74 WSW 9 15 30.27 1025 10 16 0.00 0.00
9:56 pm 21:56 Clear 18 -7.8 11 -11.7 74 74 WSW 9 15 30.28 1025 10 16 0.00 0.00
10:56 pm 22:56 Clear 16 -8.9 10 -12.2 77 77 WSW 9 15 30.29 1026 10 16 0.00 0.00
11:56 pm 23:56 Clear 16 -8.9 9 -12.8 74 74 W 10 17 30.28 1025 10 16 0.00 0.00

Powered by AerisWeather